Flag for U.S.A. Weather past 2 weeks in Daytona Beach, Florida, U.S.A.

Now
74 °F

Clear.


Feels Like: 70 °F
Forecast: 76 / 88 °F
Wind: No wind

Location: Daytona Beach Regional Airport

Current Time: Jul 31, 2014 at 5:43:26 AM

Latest Report: Jul 31, 2014 at 4:53 AM


Visibility: 8 mi

Pressure: 29.94 "Hg

Humidity: 97%

Dew point: 73 °F

Location of Daytona BeachLocation

Historic Weather in Daytona Beach — Graph

°F

Daytona Beach temperature yesterday

Maximum temperature yesterday: 92 °F (at 4:53 PM)
Minimum temperature yesterday: 72 °F (at 6:53 AM)
Average temperature yesterday: 82 °F

Past Weeks' High & Low Weather Summary

 TemperatureHumidityPressure
High92 °F (Jul 26, 2:53 PM)100% (Jul 17, 5:53 AM)30.10 "Hg (Jul 17, 5:53 AM)
Low72 °F (Jul 30, 6:53 AM)37% (Jul 30, 3:53 PM)29.89 "Hg (Jul 16, 4:53 PM)
Average81 °F82%30.02 "Hg
* Reported Jul 16 4:53 AM — Jul 31 4:53 AM, Daytona Beach, Weather by CustomWeather, © 2014

Note: Actual official high and low records may vary slightly from our data, if they occured in-between our weather recording intervals... More about our weather records

Advertising

Daytona Beach weather history for previous 24 hours

 ConditionsComfort  
Time TempWeatherWind HumidityBarometerVisibility
4:53 AM
Jul 31
74 °FClear.No wind97%29.94 "Hg8 mi
3:53 AM74 °FClear.No wind97%29.95 "Hg7 mi
2:53 AM75 °FClear.No wind94%29.97 "Hg8 mi
1:53 AM75 °FClear.No wind90%29.97 "Hg9 mi
12:53 AM77 °FClear.No wind88%29.98 "Hg9 mi
11:53 PM
Jul 30
78 °FClear.No wind87%29.98 "Hg10 mi
10:53 PM80 °FClear.No wind79%29.98 "Hg10 mi
9:53 PM80 °FPassing clouds.3 mph81%29.98 "Hg10 mi
8:53 PM82 °FPassing clouds.3 mph72%29.96 "Hg10 mi
7:53 PM85 °FPassing clouds.5 mph63%29.94 "Hg10 mi
6:53 PM89 °FPassing clouds.7 mph39%29.93 "Hg10 mi
5:53 PM90 °FPassing clouds.5 mph37%29.93 "Hg10 mi
4:53 PM92 °FPassing clouds.8 mph37%29.93 "Hg10 mi
3:53 PM91 °FPassing clouds.10 mph37%29.93 "Hg10 mi
2:53 PM91 °FPassing clouds.12 mph39%29.95 "Hg10 mi
1:53 PM91 °FPassing clouds.10 mph44%29.96 "Hg10 mi
12:53 PM90 °FPassing clouds.7 mph45%29.97 "Hg10 mi
11:53 AM88 °FPassing clouds.6 mph50%29.98 "Hg10 mi
10:53 AM87 °FPassing clouds.7 mph55%29.98 "Hg10 mi
9:53 AM83 °FPassing clouds.5 mph68%29.98 "Hg10 mi
8:53 AM79 °FPassing clouds.5 mph72%29.97 "Hg10 mi
7:53 AM74 °FPassing clouds.6 mph85%29.95 "Hg10 mi
6:53 AM72 °FPassing clouds.5 mph91%29.94 "Hg9 mi
5:53 AM73 °FPassing clouds.No wind90%29.93 "Hg10 mi
Weather by CustomWeather, © 2014

See weather overviewHow to use our weather pages